Weather History for KMMU - January, 2013

Change the Weather History Date:

Monday, January 7, 2013

  Actual Average (KEWR) Record (KEWR)
Temperature  
Mean Temperature 34 °F 32 °F  
Max Temperature 44 °F 39 °F 64 °F (2012)
Min Temperature 23 °F 25 °F 3 °F (2014)
Degree Days  
Heating Degree Days 32 33  
Month to date heating degree days 230  
Since 1 July heating degree days 1980  
Cooling Degree Days 0 0  
Month to date cooling degree days 0  
Year to date cooling degree days 0  
Moisture  
Dew Point 25 °F    
Average Humidity 74    
Maximum Humidity 100    
Minimum Humidity 34    
Precipitation  
Precipitation 0.00 in 0.12 in 1.44 in (1996)
Month to date precipitation 0.83  
Year to date precipitation 0.83  
Snow  
Snow 0.00 in 0.30 in 18.00 in (1996)
Month to date snowfall 1.7  
Since 1 July snowfall 7.5  
Snow Depth -    
Sea Level Pressure  
Sea Level Pressure 30.25 in    
Wind  
Wind Speed 4 mph (WNW)    
Max Wind Speed 12 mph    
Max Gust Speed 23 mph    
Visibility 10 miles    
Events      
T = Trace of Precipitation, MM = Missing Value Source: NWS Daily Summary

Daily Weather History Graph

Daily Weather History Graph

Search for Another Location

Airport or City:

Trip Planner

Search our weather history database for the weather conditions in past years. The results will help you decide how hot, cold, wet, or windy it might be!

Date:

Astronomy

Jan. 07, 2013 Rise Set
Actual Time 7:21 AM EST 4:46 PM EST
Civil Twilight 6:51 AM EST 5:17 PM EST
Nautical Twilight 6:17 AM EST 5:51 PM EST
Astronomical Twilight 5:44 AM EST 6:24 PM EST
Moon 2:42 AM EST (1/7) 12:55 PM EST (1/7)
Length of Visible Light 10h 25m
Length of Day
9h 24m
Waning Crescent, 23% of the Moon is Illuminated
Jan 7
Waning Crescent
Jan 11
New
Jan 18
First Quarter
Jan 26
Full
Feb 3
Last Quarter

Hourly Weather History & Observations

Time (EST) Temp. Windchill Dew Point Humidity Pressure Visibility Wind Dir Wind Speed Gust Speed Precip Events Conditions
12:15 AM 37.4 °F 33.8 °F 28.4 °F 70% 30.06 in 10.0 mi West 4.6 mph - N/A   Clear
12:35 AM 37.4 °F 33.8 °F 28.4 °F 70% 30.06 in 10.0 mi West 4.6 mph - N/A   Clear
12:55 AM 35.6 °F 31.7 °F 28.4 °F 75% 30.07 in 10.0 mi West 4.6 mph - N/A   Clear
1:15 AM 35.6 °F 30.7 °F 28.4 °F 75% 30.07 in 10.0 mi West 5.8 mph - N/A   Clear
1:35 AM 35.6 °F 30.7 °F 28.4 °F 75% 30.08 in 10.0 mi West 5.8 mph - N/A   Clear
1:55 AM 35.6 °F 30.7 °F 28.4 °F 75% 30.09 in 10.0 mi West 5.8 mph - N/A   Clear
2:15 AM 35.6 °F 30.7 °F 28.4 °F 75% 30.10 in 10.0 mi West 5.8 mph - N/A   Clear
2:35 AM 35.6 °F 31.7 °F 28.4 °F 75% 30.10 in 10.0 mi West 4.6 mph - N/A   Clear
2:55 AM 33.8 °F 30.8 °F 28.4 °F 81% 30.10 in 10.0 mi West 3.5 mph - N/A   Clear
3:15 AM 33.8 °F - 28.4 °F 81% 30.11 in 10.0 mi Calm Calm - N/A   Clear
3:35 AM 33.8 °F 29.6 °F 28.4 °F 81% 30.11 in 10.0 mi West 4.6 mph - N/A   Clear
3:55 AM 33.8 °F 30.8 °F 28.4 °F 81% 30.12 in 10.0 mi WNW 3.5 mph - N/A   Mostly Cloudy
4:15 AM 35.6 °F - 28.4 °F 75% 30.13 in 10.0 mi Calm Calm - N/A   Overcast
4:35 AM 35.6 °F - 28.4 °F 75% 30.13 in 10.0 mi Calm Calm - N/A   Overcast
4:55 AM 32.0 °F - 28.4 °F 87% 30.14 in 10.0 mi Calm Calm - N/A   Scattered Clouds
5:15 AM 30.2 °F - 26.6 °F 86% 30.16 in 10.0 mi Calm Calm - N/A   Clear
5:35 AM 28.4 °F - 26.6 °F 93% 30.16 in 10.0 mi Calm Calm - N/A   Clear
7:45 AM 30.2 °F - 28.4 °F 93% 30.24 in 10.0 mi Calm Calm - N/A   Scattered Clouds
8:45 AM 39.2 °F 37.0 °F 30.2 °F 70% 30.28 in 10.0 mi WNW 3.5 mph - N/A   Scattered Clouds
9:45 AM 41.0 °F 34.7 °F 24.8 °F 53% 30.21 in 10.0 mi NNW 10.4 mph 23.0 mph N/A   Scattered Clouds
10:45 AM 42.8 °F 38.6 °F 24.8 °F 49% 30.32 in 10.0 mi WNW 6.9 mph 18.4 mph N/A   Scattered Clouds
11:45 AM 42.8 °F 36.6 °F 21.2 °F 42% 30.33 in 10.0 mi NNW 11.5 mph 18.4 mph N/A   Clear
12:45 PM 44.6 °F 42.2 °F 21.2 °F 39% 30.34 in 10.0 mi North 4.6 mph 19.6 mph N/A   Clear
1:45 PM 44.6 °F 40.7 °F 19.4 °F 37% 30.34 in 10.0 mi NNW 6.9 mph 16.1 mph N/A   Clear
2:45 PM 44.6 °F 40.2 °F 19.4 °F 37% 30.35 in 10.0 mi North 8.1 mph 13.8 mph N/A   Clear
3:45 PM 44.6 °F 41.4 °F 17.6 °F 34% 30.38 in 10.0 mi North 5.8 mph - N/A   Clear
4:45 PM 41.0 °F 37.1 °F 21.2 °F 45% 30.39 in 10.0 mi NNW 5.8 mph - N/A   Clear
5:45 PM 35.6 °F - 21.2 °F 56% 30.40 in 10.0 mi Calm Calm - N/A   Clear
6:45 PM 30.2 °F 26.7 °F 23.0 °F 75% 30.40 in 10.0 mi WNW 3.5 mph - N/A   Clear
7:45 PM 26.6 °F - 23.0 °F 86% 30.41 in 10.0 mi Calm Calm - N/A   Clear
8:45 PM 26.6 °F - 23.0 °F 86% 30.40 in 10.0 mi Calm Calm - N/A   Clear
9:45 PM 26.6 °F - 21.2 °F 80% 30.40 in 10.0 mi Calm Calm - N/A   Clear
9:55 PM 24.8 °F - 23.0 °F 93% 30.39 in 10.0 mi Calm Calm - N/A   Clear
10:15 PM 24.8 °F - 23.0 °F 93% 30.39 in 10.0 mi Calm Calm - N/A   Clear
10:35 PM 23.0 °F - 23.0 °F 100% 30.39 in 10.0 mi Calm Calm - N/A   Clear
10:55 PM 23.0 °F - 23.0 °F 100% 30.39 in 10.0 mi Calm Calm - N/A   Clear
11:15 PM 23.0 °F - 23.0 °F 100% 30.39 in 10.0 mi Calm Calm - N/A   Clear
11:35 PM 23.0 °F - 23.0 °F 100% 30.39 in 10.0 mi Calm Calm - N/A   Clear
11:55 PM 23.0 °F - 23.0 °F 100% 30.39 in 10.0 mi Calm Calm - N/A   Clear